Welcome to the New NWS' Forecast!
Most changes are behind the scenes, but click here for differences you might notice.
Latest weather observations around

Craig Field / Selma (KSEM)

Using English Units (Switch to International System of Units)
Date/ Time (CDT) Wind (mph) Vis. (mi) Weather Sky Cond. Temp (°F) Rel. Humidity Wind Chill (°F) Heat Index (°F) Pressure Precip. (in)
Air Dwpt 6 hour Altimeter (inHg) Sea level (inHg) 1 hr 3 hr 6 hr
Max Min
Notice The following observation data may not be complete
Jul 23 02:35   10 Clear CLR          %              
Jul 23 02:15 WSW 3 10 Clear CLR 73 70     89%   75 29.78        
Jul 23 01:55 WSW 5 10 Clear CLR 73 70     89%   75 29.78        
Jul 23 01:35 W 5 10 Clear CLR 73 68     83%   74 29.78        
Jul 23 01:15 Calm 10 Clear CLR 75 68     78%   76 29.78        
Jul 23 00:55 NW 5 10 Clear CLR 77 68     74%   78 29.78        
Jul 23 00:35 NNW 9 10 Clear CLR 79 68     70%   80 29.78        
Jul 23 00:15 NNW 3 10 Clear CLR 75 70     83%   76 29.79        
Jul 22 23:55 NW 5 10 Clear CLR 75 70     83%   76 29.8        
Jul 22 23:35 NNW 5 10 Clear CLR 79 68     70%   80 29.81        
Jul 22 23:15 NNW 6 10 Clear CLR 77 70     78%   78 29.81        
Jul 22 22:55 NNW 6 10 Clear CLR 79 68     70%   80 29.81        
Jul 22 22:35 NNW 6 10 Clear CLR 79 68     70%   80 29.81        
Jul 22 22:15 NNW 6 10 Clear CLR 79 68     70%   80 29.82        
Jul 22 21:55 NNW 7 10 Clear CLR 79 68     70%   80 29.81        
Jul 22 21:35 NNW 7 10 Clear CLR 81 68     66%   83 29.81        
Jul 22 21:15 NNW 8 10 Clear CLR 81 68     66%   83 29.8        
Jul 22 20:55 NNW 9 10 Clear CLR 84 66     55%   87 29.79        
Jul 22 20:35 NNW 9 10 Clear CLR 82 68     62%   85 29.78        
Jul 22 20:15 NW 7 10 Clear CLR 81 68     66%   83 29.78        
Jul 22 19:55 NW 7 10 Clear CLR 82 68     62%   85 29.77        
Jul 22 19:35 NW 8 10 Clear CLR 84 66     55%   87 29.76        
Jul 22 19:15 NW 8 10 Clear CLR 86 66     52%   88 29.76        
Jul 22 18:55 NW 9 10 Clear CLR 88 66     49%   90 29.76        
Jul 22 18:35 NNW 11 10 Clear CLR 90 64     43%   91 29.75        
Jul 22 18:15 NNW 14 10 Clear CLR 90 66     46%   92 29.75        
Jul 22 17:55 NW 14 10 Clear CLR 90 66     46%   92 29.74        
Jul 22 17:35 NW 15 10 Mostly Clear FEW055 91 66     44%   94 29.74        
Jul 22 17:15 NW 11 10 Mostly Clear FEW060 91 68     46%   96 29.75        
Jul 22 16:55 NNW 14 10 Partly Cloudy SCT060 91 66     44%   94 29.75        
Jul 22 16:35 WNW 9 10 Clear CLR 91 66     44%   94 29.75        
Jul 22 16:15 NW 14 10 Mostly Clear FEW060 91 64     41%   93 29.74        
Jul 22 15:55 NW 15 10 Partly Cloudy SCT060 SCT070 91 66     44%   94 29.75        
Jul 22 15:35 WNW 10 10 Clear CLR 91 68     46%   96 29.75        
Jul 22 15:15 NW 15 10 Clear CLR 93 70     47%   99 29.74        
Jul 22 14:55 NW 14 10 Mostly Clear FEW050 FEW055 FEW065 93 70     47%   99 29.75        
Jul 22 14:35 WSW 10 10 Mostly Clear FEW049 FEW055 FEW065 91 77     63%   105 29.75        
Jul 22 14:15 W 11 10 Mostly Clear FEW060 FEW070 91 77     63%   105 29.76        
Jul 22 13:55 WSW 11 10 Mostly Clear FEW050 FEW060 FEW075 91 75     59%   103 29.76        
Jul 22 13:35 WSW 9 10 Partly Cloudy FEW041 FEW048 SCT060 90 75     63%   100 29.77        
Jul 22 13:15 SW 10 10 Mostly Cloudy SCT040 BKN049 90 77     67%   103 29.78        
Jul 22 12:55 SW 11 10 Partly Cloudy FEW040 SCT048 SCT055 88 75     66%   98 29.78        
Jul 22 12:35 WNW 8 10 Mostly Cloudy FEW034 SCT043 BKN070 90 75     63%   100 29.79        
Jul 22 12:15 W 7 10 Partly Cloudy FEW033 SCT042 SCT055 90 75     63%   100 29.8        
Jul 22 11:55 NNW 5 10 Mostly Clear FEW041 FEW047 FEW055 90 75     63%   100 29.8        
Jul 22 11:35 7 10 Partly Cloudy FEW045 SCT055 SCT080 88 75     66%   98 29.82        
Jul 22 11:15 WSW 7 10 Partly Cloudy FEW026 FEW035 SCT085 90 77     67%   103 29.82        
Jul 22 10:55 W 8 10 Mostly Cloudy FEW026 SCT035 BKN043 88 77     70%   100 29.83        
Jul 22 10:35 WSW 8 10 Partly Cloudy FEW024 FEW032 SCT044 88 77     70%   100 29.83        
Jul 22 10:15 W 7 10 Partly Cloudy SCT024 SCT029 88 77     70%   100 29.84        
Jul 22 09:55 7 10 Clear CLR 88 77     70%   100 29.84        
Jul 22 09:35 W 10 10 Clear CLR 86 77     75%   97 29.84        
Jul 22 09:15 W 6 10 Clear CLR 86 77     75%   97 29.84        
Jul 22 08:55 W 6 10 Clear CLR 84 77     79%   94 29.84        
Jul 22 08:35 SW 6 10 Clear CLR 84 75     74%   92 29.84        
Jul 22 08:15 SW 6 10 Clear CLR 82 77     84%   91 29.83        
Jul 22 07:55 SSW 3 10 Clear CLR 81 75     84%   86 29.83        
Jul 22 07:35 Calm 10 Clear CLR 81 75     84%   86 29.83        
Jul 22 07:15 Calm 10 Clear CLR 79 75     89%   82 29.84        
Jul 22 06:55 Calm 10 Clear CLR 77 73     89%   79 29.83        
Jul 22 06:35 Calm 9 Clear CLR 73 72     94%   75 29.84        
Jul 22 06:15 Calm 3 Fog/Mist CLR 73 73     100%   75 29.84        
Jul 22 05:55 Calm 2.5 Fog/Mist CLR 73 72     94%   75 29.83        
Jul 22 05:35 Calm 10 Clear CLR 72 72     100%   73 29.83        
Jul 22 05:15 Calm 10 Clear CLR 72 72     100%   73 29.83        
Jul 22 04:55 Calm 10 Clear CLR 73 72     94%   75 29.83        
Jul 22 04:35 Calm 10 Clear CLR 73 72     94%   75 29.84        
Jul 22 04:15 S 3 10 Clear CLR 73 72     94%   75 29.84        
Jul 22 03:55 Calm 10 Clear CLR 75 73     94%   77 29.84        
Jul 22 03:35 Calm 10 Clear CLR 75 73     94%   77 29.84        
Jul 22 03:15 Calm 10 Clear CLR 75 73     94%   77 29.83        
Jul 22 02:55 Calm 10 Clear CLR 75 73     94%   77 29.83        
Jul 22 02:35 Calm 10 Clear CLR 75 73     94%   77 29.82        
Jul 22 02:15 Calm 10 Clear CLR 77 73     89%   79 29.83        
Jul 22 01:55 Calm 10 Clear CLR 79 73     84%   82 29.83        
Jul 22 01:35 WNW 5 10 Clear CLR 79 75     89%   82 29.83        
Jul 22 01:15 Calm 10 Clear CLR 81 75     84%   86 29.84        
Jul 22 00:55 Calm 10 Clear CLR 81 75     84%   86 29.84        
Jul 22 00:35 Calm 10 Mostly Cloudy SCT042 SCT050 BKN065 81 75     84%   86 29.84        
Jul 22 00:15 WNW 5 10 Light Drizzle BKN044 BKN055 OVC065 82 75     79%   89 29.85        
Jul 21 23:55 W 6 10 Cloudy BKN045 OVC060 82 73     74%   88 29.85        
Jul 21 23:35 WSW 6 10 Mostly Cloudy BKN046 BKN060 BKN075 82 73     74%   88 29.84        
Jul 21 23:15 WSW 5 10 Partly Cloudy FEW049 SCT060 SCT080 81 73     79%   85 29.84        
Jul 21 22:55 Calm 10 Partly Cloudy FEW050 SCT060 81 73     79%   85 29.84        
Jul 21 22:35 SW 3 10 Mostly Cloudy BKN065 81 73     79%   85 29.85        
Jul 21 22:15 SW 5 10 Partly Cloudy SCT065 81 73     79%   85 29.85        
Jul 21 21:55 SW 6 10 Clear CLR 81 73     79%   85 29.85        
Jul 21 21:35 SW 5 10 Clear CLR 82 73     74%   88 29.85        
Jul 21 21:15 SW 5 10 Clear CLR 82 73     74%   88 29.84        
Jul 21 20:55 SW 5 10 Clear CLR 84 73     70%   91 29.84        
Jul 21 20:35 WSW 5 10 Clear CLR 84 73     70%   91 29.83        
Jul 21 20:15 WSW 6 10 Clear CLR 84 73     70%   91 29.83        
Jul 21 19:55 WSW 5 10 Clear CLR 86 73     66%   93 29.83        
Jul 21 19:35 WSW 7 10 Clear CLR 88 73     62%   96 29.82        
Jul 21 19:15 WSW 6 10 Clear CLR 88 75     66%   98 29.81        
Jul 21 18:55 W 7 10 Clear CLR 90 75     63%   100 29.81        
Jul 21 18:35 WSW 8 10 Clear   90 73     59%   98 29.81        
Jul 21 18:15 W 10 10 Clear   90 73     59%   98 29.81        
Jul 21 17:55 WSW 11 10 Clear   91 73     56%   101 29.82        
Jul 21 17:35 W 7 10 Clear CLR 91 73     56%   101 29.82        
Jul 21 17:15 W 10 10 Clear CLR 91 72     53%   99 29.83        
Jul 21 16:55 W 9 10 Clear CLR 91 73     56%   101 29.84        
Jul 21 16:35 W 8 10 Clear CLR 91 72     53%   99 29.84        
Jul 21 16:15 WSW 9 10 Clear CLR 91 73     56%   101 29.85        
Jul 21 15:55 WSW 13 10 Clear CLR 93 75     56%   105 29.85        
Jul 21 15:35 W 11 10 Clear CLR 93 73     53%   103 29.85        
Jul 21 15:15 W 11 10 Clear CLR 91 73     56%   101 29.85        
Jul 21 14:55 W 8 10 Clear CLR 91 73     56%   101 29.86        
Jul 21 14:35 W 9 10 Clear CLR 91 72     53%   99 29.85        
Jul 21 14:15 WSW 10 10 Clear CLR 91 73     56%   101 29.85        
Jul 21 13:55 WSW 11 10 Clear CLR 90 73     59%   98 29.85        
Jul 21 13:35 W 10 10 Clear CLR 90 73     59%   98 29.85        
Jul 21 13:15 W 11 10 Clear CLR 88 73     62%   96 29.85        
Jul 21 12:55 W 9 10 Clear CLR 88 73     62%   96 29.86        
Jul 21 12:35 W 11 10 Clear CLR 88 73     62%   96 29.86        
Jul 21 12:15 7 10 Clear CLR 86 75     70%   95 29.87        
Jul 21 11:55 7 10 Clear CLR 86 73     66%   93 29.88        
Jul 21 11:35 WSW 8 10 Clear CLR 86 72     62%   92 29.89        
Jul 21 11:15 W 5 10 Clear CLR 84 75     74%   92 29.89        
Jul 21 10:55 SW 5 10 Clear CLR 82 75     79%   89 29.9        
Jul 21 10:35 5 10 Clear CLR 79 73     84%   82 29.9        
Jul 21 10:15 S 5 10 Clear CLR 75 73     94%   77 29.91        
Jul 21 09:55 Calm 10 Mostly Clear FEW060 FEW100 75 73     94%   77 29.93        
Jul 21 09:35 Calm 10 Thunderstorms and Rain FEW034 SCT046 BKN065 75 72     89%   77 29.94        
Jul 21 09:15 NW 5 7 Rain SCT031 BKN065 OVC100 73        %     29.98        
Jul 21 08:55 WNW 11 4 Thunderstorms and Rain FEW005 BKN033 OVC100 75 72     89%   77 29.99        
Jul 21 08:35 WNW 18 2.5 Thunderstorms and Heavy Rain FEW004 SCT030 OVC090 77        %     29.99        
Jul 21 08:15 W 16 10 Mostly Cloudy FEW080 BKN090 BKN120 81 77     89%   87 29.95        
Jul 21 07:55 WSW 8 10 Mostly Clear FEW090 82 77     84%   91 29.94        
Jul 21 07:35 SW 7 10 Clear CLR 81 77     89%   87 29.92        
Jul 21 07:15 SW 8 10 Clear CLR 81 77     89%   87 29.92        
Jul 21 06:55 SW 7 10 Clear CLR 81 77     89%   87 29.91        
Jul 21 06:35 SW 6 10 Clear CLR 79 77     94%   83 29.9        
Jul 21 06:15 SW 5 10 Clear CLR 79 77     94%   83 29.9        
Jul 21 05:55 WSW 3 10 Clear CLR 79 75     89%   82 29.89        
Jul 21 05:35 Calm 10 Clear CLR 79 75     89%   82 29.88        
Jul 21 05:15 S 5 10 Clear CLR 79 75     89%   82 29.87        
Jul 21 04:55 S 6 10 Clear CLR 79 75     89%   82 29.86        
Jul 21 04:35 S 8 10 Clear CLR 79 75     89%   82 29.85        
Jul 21 04:15 S 6 10 Clear CLR 79 75     89%   82 29.85        
Jul 21 03:55 S 6 10 Partly Cloudy SCT100 79 75     89%   82 29.86        
Jul 21 03:35 S 6 10 Partly Cloudy SCT100 77 75     94%   79 29.86        
Jul 21 03:15 SSE 6 10 Mostly Cloudy BKN110 77 75     94%   79 29.86        
Jul 21 02:55 SSE 5 10 Mostly Cloudy FEW042 BKN110 77 75     94%   79 29.88        
Jul 21 02:35 SE 6 10 Mostly Cloudy SCT041 BKN100 77 75     94%   79 29.9        
Jul 21 02:15 SSE 5 10 Partly Cloudy SCT039 SCT110 77 75     94%   79 29.91        
Jul 21 01:55 Calm 10 Mostly Cloudy SCT039 BKN045 79 75     89%   82 29.91        
Jul 21 01:35 Calm 10 Cloudy BKN039 OVC045 79 75     89%   82 29.92        
Jul 21 01:15 SSE 5 10 Mostly Cloudy BKN040 BKN046 77 75     94%   79 29.9        
Jul 21 00:55 SSE 5 10 Mostly Cloudy BKN043 BKN049 77 75     94%   79 29.91        
Jul 21 00:35 SSE 5 10 Mostly Cloudy BKN038 BKN044 77 75     94%   79 29.92        
Jul 21 00:15 SSE 3 10 Mostly Cloudy BKN038 BKN045 BKN050 77 75     94%   79 29.93        
Jul 20 23:55 SSE 3 10 Cloudy BKN040 OVC049 79 75     89%   82 29.92        
Jul 20 23:35 SE 3 10 Mostly Cloudy BKN041 BKN055 79 75     89%   82 29.92        
Jul 20 23:15 Calm 10 Cloudy BKN039 BKN044 OVC120 79 75     89%   82 29.92        
Jul 20 22:55 SE 3 10 Partly Cloudy FEW040 SCT120 77 75     94%   79 29.92        
Jul 20 22:35 SE 3 10 Mostly Clear FEW039 FEW120 79 77     94%   83 29.93        
Jul 20 22:15 SSE 3 10 Partly Cloudy SCT120 79 77     94%   83 29.93        
Jul 20 21:55 Calm 10 Mostly Cloudy BKN120 79 77     94%   83 29.94        
Jul 20 21:35 SE 3 10 Partly Cloudy SCT120 79 77     94%   83 29.94        
Jul 20 21:15 Calm 10 Clear CLR 79 77     94%   83 29.93        
Jul 20 20:55 SSE 3 10 Clear CLR 79 77     94%   83 29.93        
Jul 20 20:35 Calm 10 Clear CLR 79 77     94%   83 29.93        
Jul 20 20:15 Calm 10 Clear CLR 82 77     84%   91 29.93        
Jul 20 19:55 SE 3 10 Clear CLR 81 77     89%   87 29.92        
Jul 20 19:35 Calm 10 Clear CLR 84 77     79%   94 29.91        
Jul 20 19:15 SSW 3 10 Clear CLR 84 75     74%   92 29.91        
Jul 20 18:55 SSW 5 10 Clear CLR 86 75     70%   95 29.9        
Jul 20 18:35 Calm 10 Clear CLR 86 75     70%   95 29.91        
Jul 20 18:15 S 5 10 Clear CLR 88 73     62%   96 29.91        
Jul 20 17:55 Calm 10 Clear CLR 88 73     62%   96 29.92        
Jul 20 17:35 SSE 5 10 Clear CLR 88 73     62%   96 29.91        
Jul 20 17:15 S 5 10 Clear CLR 90 72     56%   96 29.92        
Jul 20 16:55 S 6 10 Clear CLR 90 73     59%   98 29.92        
Jul 20 16:35 S 5 10 Partly Cloudy SCT031 88 73     62%   96 29.93        
Jul 20 16:15 Calm 10 Mostly Cloudy BKN032 88 73     62%   96 29.93        
Jul 20 15:55 Calm 10 Mostly Clear FEW030 90 73     59%   98 29.94        
Jul 20 15:35 Calm 10 Mostly Clear FEW029 88 73     62%   96 29.94        
Jul 20 15:15 Calm 10 Clear CLR 88 73     62%   96 29.95        
Jul 20 14:55 Calm 10 Clear CLR 88 73     62%   96 29.94        
Jul 20 14:35 Calm 10 Partly Cloudy SCT023 88 73     62%   96 29.95        
Jul 20 14:15 Calm 10 Mostly Cloudy BKN022 86 73     66%   93 29.96        
Jul 20 13:55 ESE 6 10 Partly Cloudy SCT021 84 73     70%   91 29.96        
Jul 20 13:35 3 10 Mostly Cloudy BKN020 84 73     70%   91 29.97        
Jul 20 13:15 E 6 10 Partly Cloudy SCT020 84 73     70%   91 29.97        
Jul 20 12:55 NE 5 10 Mostly Cloudy BKN017 84 73     70%   91 29.99        
Jul 20 12:35 Calm 10 Cloudy OVC016 82 73     74%   88 29.99        
Jul 20 12:15 ESE 7 10 Cloudy OVC016 82 73     74%   88 29.99        
Jul 20 11:55 SE 7 10 Cloudy OVC016 81 73     79%   85 29.99        
Jul 20 11:35 SSE 5 10 Cloudy OVC016 81 73     79%   85 29.99        
Jul 20 11:15 Calm 10 Cloudy OVC015 81 72     74%   85 30        
Jul 20 10:55 SSE 6 10 Cloudy OVC013 81 73     79%   85 30        
Jul 20 10:35 ESE 5 10 Cloudy OVC011 79 73     84%   82 30        
Jul 20 10:15 Calm 10 Cloudy OVC009 79 73     84%   82 30        
Jul 20 09:55 Calm 10 Cloudy OVC009 77 72     83%   78 30        
Jul 20 09:35 Calm 10 Cloudy OVC007 77 72     83%   78 30        
Jul 20 09:15 NE 5 10 Cloudy OVC007 77 72     83%   78 30        
Jul 20 08:55 3 10 Cloudy OVC007 77 73     89%   79 30        
Jul 20 08:35 E 6 10 Cloudy OVC007 75 72     89%   77 29.99        
Jul 20 08:15 E 5 10 Cloudy OVC006 75 72     89%   77 29.99        
Jul 20 07:55 E 6 10 Cloudy OVC006 75 72     89%   77 29.99        
Jul 20 07:35 ENE 5 10 Cloudy OVC005 75 72     89%   77 29.97        
Jul 20 07:15 Calm 10 Cloudy OVC005 75 73     94%   77 29.96        
Jul 20 06:55 E 5 10 Cloudy OVC003 75 73     94%   77 29.95        
Jul 20 06:35 E 6 9 Cloudy OVC003 73 73     100%   75 29.94        
Jul 20 06:15 E 7 8 Cloudy BKN003 OVC012 73 73     100%   75 29.93        
Jul 20 05:55 E 6 9 Cloudy BKN003 OVC012 73 73     100%   75 29.93        
Jul 20 05:35 6 1.25 Fog/Mist OVC002 73 73     100%   75 29.93        
Jul 20 05:15 Calm 0.5 Fog/Mist OVC002 73 73     100%   75 29.93        
Jul 20 04:55 NE 5 1 Fog/Mist OVC002 73 73     100%   75 29.92        
Jul 20 04:35 NE 5 0.25 Fog OVC002 73 73     100%   75 29.92        
Jul 20 04:15 ENE 6 0.25 Fog OVC002 73 72     94%   75 29.91        
Jul 20 03:55 E 5 0.5 Fog OVC002 73 73     100%   75 29.91        
Jul 20 03:35 Calm 10 Partly Cloudy SCT002 73 72     94%   75 29.91        
Jul 20 03:15 Calm 6 Fog/Mist SCT002 72 72     100%   73 29.89        
Jul 20 02:55 Calm 2.5 Fog/Mist BKN002 73 72     94%   75 29.9        
Jul 20 02:35 Calm 4 Fog/Mist CLR 73 72     94%   75 29.91        
May 15 07:15 E 6 10 Clear CLR 70 64     83%     29.97        
May 14 21:35 SSE 3 10 Clear CLR 77 66     69%   78 29.92        
May 14 10:35 NE 8 10 Clear CLR 88 61     40%   88 30.02        
May 14 08:15 N 5 10 Clear CLR 77 63     61%   77 30.03        
May 14 07:55 N 5 10 Clear CLR 75 64     69%   76 30.02        
Notice The following observation data may not be complete
May 14 05:15   10 Clear CLR          %              
Notice The following observation data may not be complete
May 13 20:15   10 Clear CLR          %              
May 13 16:15 NNE 5 10 Mostly Clear FEW075 93 55     28%   91 30.02        
May 13 13:35 N 9 10 Mostly Clear FEW065 91 57     32%   90 30.08        
May 13 11:55 6 10 Clear   90 57     34%   88 30.11        
May 13 06:35 Calm 10 Clear CLR 61 57     88%     30.1        
Notice The following observation data may not be complete
May 13 05:15   10 Clear CLR          %              
May 13 00:15 Calm 10 Clear CLR 66 63     88%     30.08        
May 12 10:15 Calm 10 Clear CLR 82 61     48%   83 30.16        
Notice The following observation data may not be complete
May 12 08:55 Calm 10 Clear CLR   61      %     30.17        
May 12 08:35 Calm 10 Clear CLR 75 59     57%   75 30.17        
May 12 01:15 Calm 10 Clear CLR 63 57     83%     30.08        
May 11 21:55 Calm 10 Clear CLR 68 63     83%     30.08        
May 11 19:35 Calm 10 Mostly Clear FEW080 79 63     58%   79 30.04        
May 11 15:55 S 11 10 Clear CLR 91 54     28%   89 30.04        
May 11 11:35 SW 8 10 Clear CLR 84        %     30.14        
Jun 12 07:35 ESE 6 10 Clear CLR 77 72     83%   78 30.14        
Jun 11 21:15 Calm 10 Clear   77 73     89%   79 30.1        
Notice The following observation data may not be complete
Jun 11 20:35   10 Cloudy FEW055 OVC065          %              
Jun 11 17:35 SSE 6 10 Light Rain SCT032 BKN050 BKN065 73 70     89%   75 30.05        
Notice The following observation data may not be complete
Jun 11 17:15 SE 14 3 Clear     70      %     30.07        
Jun 11 14:55 E 9 10 Mostly Clear FEW047 FEW060 91 68     46%   96 30.07        
Jun 11 02:35 Calm 10 Mostly Clear FEW055 68 64     88%     30.05        
Jun 10 23:35 Calm 10 Clear CLR 70 64     83%     30.06        
Jun 10 12:55 SE 9 10 Mostly Cloudy FEW055 BKN080 86 59     40%   85 30.06        
Jun 09 22:55 Calm 10 Mostly Cloudy BKN060 BKN070 68 64     88%     29.98        
Jun 09 16:35 W 8 10 Clear CLR 86 57     38%   85 29.92        
Notice The following observation data may not be complete
Jun 09 12:35   10 Partly Cloudy SCT055          %              
Jun 08 08:35 Calm 10 Clear CLR 70 59     69%     29.92        
Jun 07 22:15 N 7 10 Mostly Cloudy BKN070 BKN080 73 57     57%   73 29.85        
Jun 07 20:15 NNE 5 10 Mostly Cloudy BKN060 BKN070 77 63     61%   77 29.81        
Jun 07 19:15 NNE 10 10 Mostly Clear FEW080 81 59     48%   81 29.8        
Notice The following observation data may not be complete
Jun 07 14:35   10 Mostly Clear FEW050 FEW055          %              
Jun 07 12:35 N 11 10 Mostly Cloudy BKN037 82 66     58%   85 29.77        
Jun 07 11:55 N 8 10 Partly Cloudy SCT032 SCT037 82 66     58%   85 29.77        
Jun 07 09:35 NNE 8 10 Clear CLR 77 64     65%   77 29.78        
Notice The following observation data may not be complete
Jun 06 09:15   10 Cloudy OVC005          %              
Jun 05 20:15 E 7 10 Cloudy BKN004 BKN080 OVC090 73 72     94%   75 29.79